Monarch Pass, CO

7:57 PM MDT on April 28, 2017 (GMT -0600)
Monarch Pass

Weather History for KMYP - July, 2013

Change the Weather History Date:

Sunday, July 14, 2013

  Actual Average (KALS) Record (KALS)
Temperature  
Mean Temperature 53 °F -  
Max Temperature 62 °F 82 °F 93 °F (2003)
Min Temperature 44 °F 47 °F 36 °F (1992)
Degree Days  
Heating Degree Days 12    
Growing Degree Days 3 (Base 50)    
Moisture  
Dew Point 43 °F    
Average Humidity 78    
Maximum Humidity 100    
Minimum Humidity 48    
Precipitation  
Precipitation 0.00 in - - ()
Sea Level Pressure  
Sea Level Pressure 30.76 in    
Wind  
Wind Speed 13 mph (North)    
Max Wind Speed 32 mph    
Max Gust Speed 34 mph    
Averages and records for this station are not official NWS values.
T = Trace of Precipitation, MM = Missing Value Source: NWS Daily Summary

Daily Weather History Graph

Daily Weather History Graph

Search for Another Location

Airport or City:

Trip Planner

Search our weather history database for the weather conditions in past years. The results will help you decide how hot, cold, wet, or windy it might be!

Date:

Astronomy

Jul. 14, 2013 Rise Set
Actual Time 5:52 AM MDT 8:28 PM MDT
Civil Twilight 5:22 AM MDT 8:58 PM MDT
Nautical Twilight 4:43 AM MDT 9:36 PM MDT
Astronomical Twilight 4:00 AM MDT 10:19 PM MDT
Moon 12:06 PM MDT (7/14) 11:48 PM MDT (7/14)
Length of Visible Light 15h 36m
Length of Day
14h 35m
Waxing Crescent, 35% of the Moon is Illuminated
Jul 14
Waxing Crescent
Jul 15
First Quarter
Jul 22
Full
Jul 29
Last Quarter
Aug 6
New

Hourly Weather History & Observations

Time (MDT) Temp. Windchill Dew Point Humidity Pressure Visibility Wind Dir Wind Speed Gust Speed Precip Events Conditions
12:15 AM 51.8 °F - 42.8 °F 71% 30.79 in - Calm Calm - N/A   Overcast
12:35 AM 50.0 °F - 42.8 °F 76% 30.79 in - East 3.5 mph - N/A   Mostly Cloudy
12:55 AM 50.0 °F - 42.8 °F 76% 30.79 in - Calm Calm - N/A   Mostly Cloudy
1:15 AM 50.0 °F - 42.8 °F 76% 30.78 in - WSW 6.9 mph - N/A   Scattered Clouds
1:35 AM 50.0 °F - 42.8 °F 76% 30.77 in - WSW 6.9 mph - N/A   Mostly Cloudy
1:55 AM 50.0 °F - 42.8 °F 76% 30.76 in - WSW 8.1 mph - N/A   Overcast
2:15 AM 48.2 °F - 42.8 °F 82% 30.76 in - SW 10.4 mph - N/A   Scattered Clouds
2:35 AM 48.2 °F - 42.8 °F 82% 30.76 in - SW 9.2 mph - N/A Thunderstorm Thunderstorm
2:55 AM 48.2 °F - 42.8 °F 82% 30.76 in - SW 9.2 mph - N/A   Clear
3:15 AM 48.2 °F - 42.8 °F 82% 30.76 in - WSW 8.1 mph - N/A   Clear
3:35 AM 46.4 °F 42.4 °F 42.8 °F 87% 30.76 in - SW 8.1 mph - N/A Thunderstorm Thunderstorm
3:55 AM 48.2 °F - 41.0 °F 76% 30.76 in - WSW 11.5 mph - N/A   Mostly Cloudy
4:15 AM 48.2 °F - 41.0 °F 76% 30.76 in - WSW 15.0 mph - N/A   Scattered Clouds
4:35 AM 48.2 °F - 41.0 °F 76% 30.76 in - WSW 15.0 mph - N/A   Clear
4:55 AM 46.4 °F 38.3 °F 42.8 °F 87% 30.76 in - West 23.0 mph - N/A   Unknown
5:15 AM 44.6 °F 34.7 °F 42.8 °F 93% 30.77 in - West 29.9 mph 34.5 mph N/A   Unknown
5:35 AM 44.6 °F 35.1 °F 42.8 °F 93% 30.77 in - West 27.6 mph - N/A   Unknown
5:55 AM 44.6 °F 36.9 °F 42.8 °F 93% 30.78 in - West 18.4 mph - N/A   Unknown
6:15 AM 46.4 °F 41.1 °F 42.8 °F 87% 30.78 in - West 11.5 mph - N/A   Unknown
6:35 AM 46.4 °F 41.5 °F 42.8 °F 87% 30.78 in - WNW 10.4 mph - N/A   Overcast
6:55 AM 48.2 °F - 42.8 °F 82% 30.78 in - WNW 12.7 mph - N/A   Overcast
7:15 AM 46.4 °F 41.5 °F 42.8 °F 87% 30.79 in - West 10.4 mph - N/A   Overcast
7:35 AM 48.2 °F - 42.8 °F 82% 30.79 in - WNW 11.5 mph - N/A   Overcast
7:55 AM 50.0 °F - 41.0 °F 71% 30.79 in - WNW 9.2 mph - N/A   Overcast
8:15 AM 50.0 °F - 41.0 °F 71% 30.79 in - West 12.7 mph - N/A   Overcast
8:35 AM 51.8 °F - 41.0 °F 67% 30.78 in - West 13.8 mph - N/A   Overcast
8:55 AM 51.8 °F - 41.0 °F 67% 30.79 in - West 17.3 mph - N/A   Overcast
9:15 AM 51.8 °F - 41.0 °F 67% 30.79 in - West 15.0 mph - N/A   Overcast
9:35 AM 51.8 °F - 41.0 °F 67% 30.80 in - West 15.0 mph - N/A   Overcast
9:55 AM 53.6 °F - 41.0 °F 62% 30.79 in - West 13.8 mph - N/A   Scattered Clouds
10:15 AM 55.4 °F - 42.8 °F 63% 30.80 in - West 10.4 mph - N/A   Clear
10:35 AM 55.4 °F - 41.0 °F 58% 30.81 in - SW 4.6 mph - N/A   Clear
10:55 AM 59.0 °F - 42.8 °F 55% 30.80 in - WSW 10.4 mph - N/A   Clear
11:15 AM 59.0 °F - 42.8 °F 55% 30.79 in - West 12.7 mph 17.3 mph N/A   Clear
11:35 AM 60.8 °F - 42.8 °F 52% 30.79 in - West 11.5 mph 17.3 mph N/A   Clear
11:55 AM 60.8 °F - 42.8 °F 52% 30.78 in - WSW 15.0 mph 23.0 mph N/A   Clear
12:15 PM 62.6 °F - 42.8 °F 48% 30.78 in - West 13.8 mph 23.0 mph N/A   Scattered Clouds
12:35 PM 59.0 °F - 41.0 °F 51% 30.78 in - NNE 8.1 mph - N/A Thunderstorm Thunderstorm
12:55 PM 55.4 °F - 41.0 °F 58% 30.77 in - East 13.8 mph - N/A Thunderstorm Thunderstorm
1:15 PM 53.6 °F - 37.4 °F 54% 30.77 in - East 12.7 mph 19.6 mph N/A Thunderstorm Thunderstorm
1:35 PM 55.4 °F - 39.2 °F 54% 30.77 in - East 12.7 mph - N/A Thunderstorm Thunderstorm
1:55 PM 51.8 °F - 41.0 °F 67% 30.75 in - East 17.3 mph - N/A Thunderstorm Thunderstorm
2:15 PM 57.2 °F - 41.0 °F 55% 30.76 in - East 11.5 mph - N/A   Scattered Clouds
2:35 PM 57.2 °F - 41.0 °F 55% 30.76 in - East 12.7 mph 18.4 mph N/A   Mostly Cloudy
2:55 PM 59.0 °F - 41.0 °F 51% 30.75 in - East 12.7 mph 18.4 mph N/A   Mostly Cloudy
3:15 PM 59.0 °F - 41.0 °F 51% 30.74 in - ENE 21.9 mph - N/A Thunderstorm Thunderstorm
3:35 PM 55.4 °F - 41.0 °F 58% 30.74 in - ENE 17.3 mph - N/A   Overcast
3:55 PM 53.6 °F - 44.6 °F 72% 30.75 in - ENE 16.1 mph - N/A Thunderstorm Thunderstorm
4:15 PM 51.8 °F - 46.4 °F 82% 30.75 in - NE 21.9 mph - N/A Thunderstorm Thunderstorm
4:35 PM 50.0 °F - 46.4 °F 87% 30.74 in - ENE 17.3 mph - N/A Thunderstorm Thunderstorm
4:55 PM 48.2 °F - 46.4 °F 93% 30.74 in - ENE 23.0 mph - N/A Thunderstorm Thunderstorm
5:15 PM 46.4 °F 38.7 °F 44.6 °F 93% 30.75 in - ENE 20.7 mph 26.5 mph N/A Thunderstorm Thunderstorm
5:35 PM 44.6 °F 35.7 °F 44.6 °F 100% 30.72 in - ENE 24.2 mph - N/A Thunderstorm Thunderstorm
5:55 PM 44.6 °F 34.9 °F 42.8 °F 93% 30.72 in - ENE 28.8 mph - N/A Thunderstorm Thunderstorm
6:15 PM 44.6 °F 34.4 °F 44.6 °F 100% 30.70 in - ENE 32.2 mph - N/A Thunderstorm Thunderstorm
6:35 PM 46.4 °F 37.0 °F 44.6 °F 93% 30.71 in - ENE 31.1 mph - N/A Thunderstorm Thunderstorm
6:55 PM 44.6 °F - 44.6 °F 100% 30.72 in - North - - N/A   Overcast
7:15 PM 44.6 °F 34.7 °F 44.6 °F 100% 30.72 in - ENE 29.9 mph 33.4 mph N/A   Overcast
7:35 PM 44.6 °F 35.1 °F 42.8 °F 93% 30.72 in - ENE 27.6 mph - N/A Thunderstorm Thunderstorm
7:55 PM 44.6 °F 35.5 °F 42.8 °F 93% 30.73 in - ENE 25.3 mph - N/A Thunderstorm Thunderstorm
8:15 PM 44.6 °F 35.1 °F 42.8 °F 93% 30.73 in - ENE 27.6 mph - N/A   Overcast
8:35 PM 44.6 °F 35.5 °F 42.8 °F 93% 30.74 in - ENE 25.3 mph - N/A Thunderstorm Thunderstorm
8:55 PM 44.6 °F 35.1 °F 42.8 °F 93% 30.74 in - ENE 27.6 mph 33.4 mph N/A   Overcast
9:15 PM 44.6 °F 34.9 °F 42.8 °F 93% 30.74 in - ENE 28.8 mph 32.2 mph N/A   Overcast
9:35 PM 44.6 °F 35.1 °F 42.8 °F 93% 30.75 in - ENE 27.6 mph - N/A   Overcast
9:55 PM 44.6 °F 35.5 °F 42.8 °F 93% 30.76 in - ENE 25.3 mph - N/A   Overcast
10:15 PM 44.6 °F 36.6 °F 42.8 °F 93% 30.76 in - ENE 19.6 mph - N/A   Overcast
10:35 PM 44.6 °F 36.6 °F 42.8 °F 93% 30.75 in - ENE 19.6 mph - N/A Thunderstorm Thunderstorm
10:55 PM 44.6 °F 35.9 °F 42.8 °F 93% 30.75 in - ENE 23.0 mph - N/A   Overcast
11:15 PM 44.6 °F 35.5 °F 42.8 °F 93% 30.74 in - ENE 25.3 mph - N/A   Overcast
11:35 PM 44.6 °F 35.3 °F 42.8 °F 93% 30.74 in - ENE 26.5 mph - N/A   Overcast
11:55 PM 44.6 °F 35.3 °F 42.8 °F 93% 30.74 in - ENE 26.5 mph 33.4 mph N/A   Overcast